H1 CPF 2 NER 2025 11 1 9 305 01 glonass137 H2 1705501 9137 42939 2025 11 1 0 0 0 2025 11 4 23 45 0 900 1 1 0 0 0 1 H9 10 0 60980 0.00000 0 -12857017.607 13824433.304 -17155835.943 10 0 60980 900.00000 0 -14646459.625 14667681.287 -14872310.317 10 0 60980 1800.00000 0 -16103897.953 15502272.745 -12300020.275 10 0 60980 2700.00000 0 -17212230.651 16270861.964 -9488952.183 10 0 60980 3600.00000 0 -17967210.645 16915702.570 -6493707.981 10 0 60980 4500.00000 0 -18377390.253 17381205.966 -3372444.103 10 0 60980 5400.00000 0 -18463540.785 17616424.533 -185742.492 10 0 60980 6300.00000 0 -18257573.013 17577354.799 3004564.279 10 0 60980 7200.00000 0 -17801005.077 17228963.441 6136590.862 10 0 60980 8100.00000 0 -17143043.293 16546850.585 9149596.671 10 0 60980 9000.00000 0 -16338357.348 15518480.165 11985159.977 10 0 60980 9900.00000 0 -15444643.990 14143925.225 14588305.908 10 0 60980 10800.00000 0 -14520081.903 12436096.325 16908566.871 10 0 60980 11700.00000 0 -13620784.747 10420442.710 18900955.340 10 0 60980 12600.00000 0 -12798359.223 8134137.825 20526830.721 10 0 60980 13500.00000 0 -12097670.315 5624781.986 21754644.208 10 0 60980 14400.00000 0 -11554907.186 2948674.960 22560547.810 10 0 60980 15300.00000 0 -11196030.512 168728.872 22928856.260 10 0 60980 16200.00000 0 -11035666.179 -2647893.333 22852353.177 10 0 60980 17100.00000 0 -11076491.738 -5432317.370 22332435.599 10 0 60980 18000.00000 0 -11309141.596 -8116571.019 21379093.812 10 0 60980 18900.00000 0 -11712635.331 -10636164.254 20010726.340 10 0 60980 19800.00000 0 -12255311.831 -12932530.022 18253792.829 10 0 60980 20700.00000 0 -12896230.664 -14955224.952 16142310.624 10 0 60980 21600.00000 0 -13586982.508 -16663798.941 13717203.724 10 0 60980 22500.00000 0 -14273832.935 -18029256.003 11025515.743 10 0 60980 23400.00000 0 -14900109.570 -19035045.448 8119501.387 10 0 60980 24300.00000 0 -15408731.892 -19677541.998 5055613.511 10 0 60980 25200.00000 0 -15744776.517 -19965994.750 1893405.240 10 0 60980 26100.00000 0 -15857968.840 -19921947.283 -1305631.316 10 0 60980 27000.00000 0 -15704994.658 -19578153.618 -4479266.681 10 0 60980 27900.00000 0 -15251532.790 -18977036.214 -7565751.834 10 0 60980 28800.00000 0 -14473921.363 -18168751.724 -10505027.567 10 0 60980 29700.00000 0 -13360385.946 -17208946.999 -13239900.879 10 0 60980 30600.00000 0 -11911776.319 -16156300.997 -15717164.607 10 0 60980 31500.00000 0 -10141779.611 -15069957.280 -17888637.750 10 0 60980 32400.00000 0 -8076599.774 -14006956.267 -19712105.777 10 0 60980 33300.00000 0 -5754115.965 -13019776.135 -21152142.444 10 0 60980 34200.00000 0 -3222554.454 -12154086.405 -22180797.201 10 0 60980 35100.00000 0 -538729.045 -11446808.862 -22778135.172 10 0 60980 36000.00000 0 2234076.984 -10924567.198 -22932619.706 10 0 60980 36900.00000 0 5028499.524 -10602590.114 -22641330.629 10 0 60980 37800.00000 0 7775653.850 -10484113.299 -21910014.563 10 0 60980 38700.00000 0 10407760.431 -10560304.582 -20752966.859 10 0 60980 39600.00000 0 12860727.702 -10810714.545 -19192747.838 10 0 60980 40500.00000 0 15076585.175 -11204232.737 -17259739.174 10 0 60980 41400.00000 0 17005666.535 -11700508.460 -14991549.186 10 0 60980 42300.00000 0 18608452.836 -12251775.591 -12432278.711 10 0 60980 43200.00000 0 19857000.129 -12805004.000 -9631661.865 10 0 60980 44100.00000 0 20735893.223 -13304286.382 -6644098.372 10 0 60980 45000.00000 0 21242687.000 -13693359.517 -3527596.356 10 0 60980 45900.00000 0 21387818.205 -13918153.290 -342646.182 10 0 60980 46800.00000 0 21193992.662 -13929259.724 2848952.714 10 0 60980 47700.00000 0 20695074.862 -13684217.633 5985289.101 10 0 60980 48600.00000 0 19934527.532 -13149516.370 9005538.078 10 0 60980 49500.00000 0 18963467.547 -12302233.906 11851136.875 10 0 60980 50400.00000 0 17838420.434 -11131239.921 14466915.659 10 0 60980 51300.00000 0 16618868.023 -9637912.782 16802161.797 10 0 60980 52200.00000 0 15364692.245 -7836339.530 18811597.405 10 0 60980 53100.00000 0 14133622.116 -5752989.583 20456251.851 10 0 60980 54000.00000 0 12978790.549 -3425874.554 21704212.942 10 0 60980 54900.00000 0 11946502.865 -903227.885 22531242.911 10 0 60980 55800.00000 0 11074309.928 1758242.259 22921247.759 10 0 60980 56700.00000 0 10389466.092 4495455.778 22866591.208 10 0 60980 57600.00000 0 9907836.151 7241333.383 22368247.241 10 0 60980 58500.00000 0 9633296.898 9927342.304 21435788.032 10 0 60980 59400.00000 0 9557658.364 12486110.635 20087206.957 10 0 60980 60300.00000 0 9661108.259 14854002.894 18348579.321 10 0 60980 61200.00000 0 9913161.280 16973550.553 16253566.397 10 0 60980 62100.00000 0 10274073.791 18795636.954 13842771.357 10 0 60980 63000.00000 0 10696664.686 20281345.798 11162958.558 10 0 60980 63900.00000 0 11128465.897 21403396.043 8266150.557 10 0 60980 64800.00000 0 11514111.786 22147103.089 5208619.818 10 0 60980 65700.00000 0 11797866.140 22510825.784 2049794.476 10 0 60980 66600.00000 0 11926179.287 22505880.401 -1148900.401 10 0 60980 67500.00000 0 11850166.203 22155925.194 -4325243.008 10 0 60980 68400.00000 0 11527899.523 21495841.691 -7417432.405 10 0 60980 69300.00000 0 10926419.071 20570160.262 -10365298.848 10 0 60980 70200.00000 0 10023371.469 19431096.992 -13111482.329 10 0 60980 71100.00000 0 8808209.102 18136285.363 -15602555.499 10 0 60980 72000.00000 0 7282896.477 16746299.202 -17790068.344 10 0 60980 72900.00000 0 5462093.021 15322072.044 -19631493.811 10 0 60980 73800.00000 0 3372803.547 13922322.171 -21091055.803 10 0 60980 74700.00000 0 1053510.199 12601092.086 -22140423.467 10 0 60980 75600.00000 0 -1447178.471 11405505.962 -22759258.636 10 0 60980 76500.00000 0 -4072305.453 10373839.019 -22935606.260 10 0 60980 77400.00000 0 -6758696.525 9533979.383 -22666120.814 10 0 60980 78300.00000 0 -9439356.447 8902346.143 -21956124.887 10 0 60980 79200.00000 0 -12046030.839 8483307.991 -20819499.353 10 0 60980 80100.00000 0 -14511827.618 8269125.677 -19278407.674 10 0 60980 81000.00000 0 -16773789.524 8240419.467 -17362860.003 10 0 60980 81900.00000 0 -18775311.380 8367140.784 -15110125.713 10 0 60980 82800.00000 0 -20468302.150 8610006.039 -12564005.886 10 0 60980 83700.00000 0 -21815002.597 8922331.320 -9773979.895 10 0 60980 84600.00000 0 -22789383.637 9252189.799 -6794242.684 10 0 60980 85500.00000 0 -23378068.018 9544800.224 -3682651.495 10 0 60981 0.00000 0 -23580737.857 9745045.147 -499602.855 10 0 60981 900.00000 0 -23410012.079 9800012.296 2693139.996 10 0 60981 1800.00000 0 -22890799.757 9661451.190 5833642.105 10 0 60981 2700.00000 0 -22059157.747 9288041.439 8860996.632 10 0 60981 3600.00000 0 -20960700.960 8647376.399 11716502.077 10 0 60981 4500.00000 0 -19648632.682 7717578.393 14344795.871 10 0 60981 5400.00000 0 -18181477.853 6488476.965 16694922.423 10 0 60981 6300.00000 0 -16620614.336 4962299.985 18721315.408 10 0 60981 7200.00000 0 -15027705.429 3153847.728 20384675.817 10 0 60981 8100.00000 0 -13462140.665 1090141.500 21652729.452 10 0 60981 9000.00000 0 -11978591.338 -1190439.887 22500849.821 10 0 60981 9900.00000 0 -10624782.314 -3639501.278 22912534.891 10 0 60981 10800.00000 0 -9439572.533 -6200395.821 22879728.819 10 0 60981 11700.00000 0 -8451423.749 -8810341.409 22402982.503 10 0 60981 12600.00000 0 -7677321.054 -11402802.552 21491449.602 10 0 60981 13500.00000 0 -7122189.960 -13910040.222 20162717.596 10 0 60981 14400.00000 0 -6778834.253 -16265724.965 18442476.338 10 0 60981 15300.00000 0 -6628397.248 -18407505.470 16364029.587 10 0 60981 16200.00000 0 -6641327.111 -20279426.328 13967657.923 10 0 60981 17100.00000 0 -6778805.794 -21834094.411 11299844.401 10 0 60981 18000.00000 0 -6994581.417 -23034503.359 8412377.135 10 0 60981 18900.00000 0 -7237126.694 -23855439.640 5361345.703 10 0 60981 19800.00000 0 -7452031.886 -24284410.863 2206050.586 10 0 60981 20700.00000 0 -7584530.482 -24322057.016 -992152.972 10 0 60981 21600.00000 0 -7582049.817 -23982027.046 -4171053.729 10 0 60981 22500.00000 0 -7396677.516 -23290325.884 -7268801.805 10 0 60981 23400.00000 0 -6987438.008 -22284159.473 -10225119.942 10 0 60981 24300.00000 0 -6322281.325 -21010326.842 -12982484.150 10 0 60981 25200.00000 0 -5379698.627 -19523227.431 -15487249.847 10 0 60981 26100.00000 0 -4149894.819 -17882568.247 -17690700.792 10 0 60981 27000.00000 0 -2635467.511 -16150868.018 -19549999.924 10 0 60981 27900.00000 0 -851562.574 -14390863.828 -21029023.424 10 0 60981 28800.00000 0 1174501.205 -12662929.629 -22099061.792 10 0 60981 29700.00000 0 3404123.442 -11022615.074 -22739374.695 10 0 60981 30600.00000 0 5788792.864 -9518407.692 -22937589.246 10 0 60981 31500.00000 0 8271880.646 -8189811.683 -22689934.568 10 0 60981 32400.00000 0 10790782.065 -7065822.945 -22001308.695 10 0 60981 33300.00000 0 13279317.670 -6163863.114 -20885177.013 10 0 60981 34200.00000 0 15670294.341 -5489215.940 -19363304.668 10 0 60981 35100.00000 0 17898120.065 -5034988.178 -17465328.408 10 0 60981 36000.00000 0 19901364.032 -4782595.168 -15228176.375 10 0 60981 36900.00000 0 21625155.876 -4702749.240 -12695347.208 10 0 60981 37800.00000 0 23023324.676 -4756908.063 -9916062.480 10 0 60981 38700.00000 0 24060189.093 -4899120.760 -6944308.971 10 0 60981 39600.00000 0 24711924.609 -5078193.016 -3837789.413 10 0 60981 40500.00000 0 24967451.497 -5240078.992 -656802.165 10 0 60981 41400.00000 0 24828807.157 -5330398.496 2536928.358 10 0 60981 42300.00000 0 24310988.042 -5296972.587 5681447.668 10 0 60981 43200.00000 0 23441268.528 -5092270.221 8715770.354 10 0 60981 44100.00000 0 22258025.926 -4675662.291 11581059.175 10 0 60981 45000.00000 0 20809121.313 -4015387.700 14221761.367 10 0 60981 45900.00000 0 19149904.308 -3090148.201 16586680.439 10 0 60981 46800.00000 0 17340925.308 -1890264.344 18629963.185 10 0 60981 47700.00000 0 15445450.703 -418343.251 20311983.315 10 0 60981 48600.00000 0 13526884.462 1310570.797 21600105.267 10 0 60981 49500.00000 0 11646203.131 3269370.479 22469314.048 10 0 60981 50400.00000 0 9859510.541 5419770.077 22902699.425 10 0 60981 51300.00000 0 8215813.388 7713665.377 22891785.450 10 0 60981 52200.00000 0 6755109.627 10094913.874 22436699.022 10 0 60981 53100.00000 0 5506868.705 12501462.878 21546174.032 10 0 60981 54000.00000 0 4488966.442 14867738.549 20237390.469 10 0 60981 54900.00000 0 3707118.576 17127197.832 18535650.851 10 0 60981 55800.00000 0 3154836.386 19214938.068 16473899.267 10 0 60981 56700.00000 0 2813906.032 21070256.256 14092091.330 10 0 60981 57600.00000 0 2655371.346 22639051.496 11436426.207 10 0 60981 58500.00000 0 2640978.592 23875970.176 8558454.837 10 0 60981 59400.00000 0 2725022.070 24746203.808 5514081.049 10 0 60981 60300.00000 0 2856512.263 25226863.621 2362474.725 10 0 60981 61200.00000 0 2981574.251 25307873.592 -835081.692 10 0 60981 62100.00000 0 3045974.087 24992343.815 -4016390.466 10 0 60981 63000.00000 0 2997665.068 24296408.049 -7119555.588 10 0 60981 63900.00000 0 2789244.816 23248532.030 -10084194.917 10 0 60981 64800.00000 0 2380217.767 21888321.685 -12852622.851 10 0 60981 65700.00000 0 1738965.890 20264881.615 -15370979.650 10 0 60981 66600.00000 0 844342.964 18434793.295 -17590284.600 10 0 60981 67500.00000 0 -313176.201 16459798.516 -19467392.075 10 0 60981 68400.00000 0 -1730841.202 14404285.770 -20965831.661 10 0 60981 69300.00000 0 -3393494.675 12332685.450 -22056516.046 10 0 60981 70200.00000 0 -5273970.471 10306883.172 -22718303.248 10 0 60981 71100.00000 0 -7334005.431 8383759.344 -22938402.730 10 0 60981 72000.00000 0 -9525627.100 6612957.518 -22712618.082 10 0 60981 72900.00000 0 -11792959.934 5034974.005 -22045422.188 10 0 60981 73800.00000 0 -14074374.968 3679647.532 -20949863.910 10 0 60981 74700.00000 0 -16304893.661 2565110.738 -19447308.591 10 0 60981 75600.00000 0 -18418746.016 1697245.829 -17567017.671 10 0 60981 76500.00000 0 -20351976.681 1069665.520 -15345575.799 10 0 60981 77400.00000 0 -22044990.666 664218.399 -12826176.628 10 0 60981 78300.00000 0 -23444932.822 451995.875 -10057781.223 10 0 60981 79200.00000 0 -24507802.158 394796.893 -7094165.392 10 0 60981 80100.00000 0 -25200213.038 446987.442 -3992874.530 10 0 60981 81000.00000 0 -25500730.124 557675.381 -814106.312 10 0 60981 81900.00000 0 -25400721.698 673107.948 2380456.987 10 0 60981 82800.00000 0 -24904696.154 739190.055 5528843.741 10 0 60981 83700.00000 0 -24030108.083 704016.535 8569992.548 10 0 60981 84600.00000 0 -22806642.503 520311.046 11444932.902 10 0 60981 85500.00000 0 -21275007.515 147668.388 14097924.163 10 0 60982 0.00000 0 -19485286.266 -445494.535 16477530.864 10 0 60982 900.00000 0 -17494916.056 -1280362.043 18537615.208 10 0 60982 1800.00000 0 -15366381.243 -2366583.328 20238224.940 10 0 60982 2700.00000 0 -13164712.543 -3701625.876 21546364.319 10 0 60982 3600.00000 0 -10954898.655 -5270646.115 22436630.653 10 0 60982 4500.00000 0 -8799316.335 -7046884.159 22891705.910 10 0 60982 5400.00000 0 -6755285.145 -8992567.605 22902694.059 10 0 60982 6300.00000 0 -4872847.714 -11060288.294 22469297.678 10 0 60982 7200.00000 0 -3192867.064 -13194796.240 21599830.232 10 0 60982 8100.00000 0 -1745519.441 -15335137.621 20311063.271 10 0 60982 9000.00000 0 -549244.827 -17417049.137 18627910.740 10 0 60982 9900.00000 0 389801.548 -19375510.062 16582955.558 10 0 60982 10800.00000 0 1077774.169 -21147346.315 14215826.601 10 0 60982 11700.00000 0 1532637.958 -22673778.191 11572437.143 10 0 60982 12600.00000 0 1783165.992 -23902805.180 8704098.713 10 0 60982 13500.00000 0 1867476.765 -24791327.658 5666526.966 10 0 60982 14400.00000 0 1831173.120 -25306915.845 2518758.620 10 0 60982 15300.00000 0 1725162.050 -25429150.922 -677999.364 10 0 60982 16200.00000 0 1603248.408 -25150481.131 -3861565.499 10 0 60982 17100.00000 0 1519605.387 -24476556.031 -6970000.456 10 0 60982 18000.00000 0 1526230.071 -23426024.292 -9942820.019 10 0 60982 18900.00000 0 1670493.111 -22029803.121 -12722179.773 10 0 60982 19800.00000 0 1992887.615 -20329849.964 -15254007.535 10 0 60982 20700.00000 0 2525073.775 -18377488.218 -17489060.692 10 0 60982 21600.00000 0 3288303.094 -16231357.535 -19383887.388 10 0 60982 22500.00000 0 4292289.794 -13955075.015 -20901672.632 10 0 60982 23400.00000 0 5534577.898 -11614705.624 -22012952.914 10 0 60982 24300.00000 0 7000431.368 -9276147.802 -22696185.771 10 0 60982 25200.00000 0 8663252.583 -7002543.487 -22938163.699 10 0 60982 26100.00000 0 10485512.085 -4851820.375 -22734264.960 10 0 60982 27000.00000 0 12420151.103 -2874468.321 -22088537.026 10 0 60982 27900.00000 0 14412398.538 -1111641.646 -21013611.545 10 0 60982 28800.00000 0 16401926.740 406334.704 -19530452.948 10 0 60982 29700.00000 0 18325256.302 1660994.308 -17667945.869 10 0 60982 30600.00000 0 20118309.640 2646252.398 -15462329.565 10 0 60982 31500.00000 0 21719006.895 3368402.833 -12956490.419 10 0 60982 32400.00000 0 23069795.897 3845590.856 -10199126.310 10 0 60982 33300.00000 0 24120010.624 4106785.419 -7243799.059 10 0 60982 34200.00000 0 24827959.697 4190295.867 -4147893.422 10 0 60982 35100.00000 0 25162657.755 4141896.767 -971502.898 10 0 60982 36000.00000 0 25105127.461 4012641.048 2223735.934 10 0 60982 36900.00000 0 24649217.851 3856454.590 5375837.813 10 0 60982 37800.00000 0 23801905.007 3727614.460 8423668.674 10 0 60982 38700.00000 0 22583062.656 3678217.691 11308127.796 10 0 60982 39600.00000 0 21024712.387 3755747.776 13973289.362 10 0 60982 40500.00000 0 19169784.878 4000841.734 16367481.643 10 0 60982 41400.00000 0 17070443.673 4445352.100 18444283.309 10 0 60982 42300.00000 0 14786041.137 5110785.725 20163418.116 10 0 60982 43200.00000 0 12380791.269 6007185.486 21491531.282 10 0 60982 44100.00000 0 9921255.513 7132502.552 22402833.178 10 0 60982 45000.00000 0 7473745.323 8472486.438 22879598.366 10 0 60982 45900.00000 0 5101748.486 10001098.642 22912510.734 10 0 60982 46800.00000 0 2863485.114 11681433.975 22500848.140 10 0 60982 47700.00000 0 809693.936 13467112.581 21652502.817 10 0 60982 48600.00000 0 -1018260.011 15304086.073 20383836.655 10 0 60982 49500.00000 0 -2589878.312 17132783.823 18719373.405 10 0 60982 50400.00000 0 -3886561.155 18890510.963 16691332.826 10 0 60982 51300.00000 0 -4902135.797 20513998.812 14339014.758 10 0 60982 52200.00000 0 -5642859.854 21942001.559 11708044.018 10 0 60982 53100.00000 0 -6126899.622 23117830.526 8849489.963 10 0 60982 54000.00000 0 -6383305.766 23991719.476 5818877.164 10 0 60982 54900.00000 0 -6450529.966 24522921.005 2675106.161 10 0 60982 55800.00000 0 -6374545.713 24681445.012 -520694.609 10 0 60982 56700.00000 0 -6206653.416 24449365.090 -3706362.953 10 0 60982 57600.00000 0 -6001063.634 23821636.856 -6819919.161 10 0 60982 58500.00000 0 -5812361.828 22806392.812 -9800779.743 10 0 60982 59400.00000 0 -5692963.211 21424700.640 -12590944.040 10 0 60982 60300.00000 0 -5690666.704 19709794.583 -15136129.732 10 0 60982 61200.00000 0 -5846412.710 17705811.989 -17386834.311 10 0 60982 62100.00000 0 -6192340.658 15466088.020 -19299301.381 10 0 60982 63000.00000 0 -6750229.308 13051080.105 -20836372.764 10 0 60982 63900.00000 0 -7530386.426 10526009.185 -21968209.839 10 0 60982 64800.00000 0 -8531035.238 7958316.467 -22672870.432 10 0 60982 65700.00000 0 -9738223.936 5415041.768 -22936730.528 10 0 60982 66600.00000 0 -11126262.411 2960232.600 -22754743.156 10 0 60982 67500.00000 0 -12658668.135 652491.357 -22130530.074 10 0 60982 68400.00000 0 -14289581.768 -1457238.019 -21076304.988 10 0 60982 69300.00000 0 -15965593.337 -3327552.801 -19612630.247 10 0 60982 70200.00000 0 -17627902.692 -4928066.615 -17768012.072 10 0 60982 71100.00000 0 -19214723.921 -6240416.995 -15578342.326 10 0 60982 72000.00000 0 -20663833.190 -7258765.013 -13086197.797 10 0 60982 72900.00000 0 -21915153.409 -7989767.880 -10340010.596 10 0 60982 73800.00000 0 -22913267.574 -8452027.477 -7393125.795 10 0 60982 74700.00000 0 -23609755.514 -8675039.624 -4302764.643 10 0 60982 75600.00000 0 -23965256.169 -8697689.812 -1128913.535 10 0 60982 76500.00000 0 -23951168.982 -8566360.035 2066839.605 10 0 60982 77400.00000 0 -23550923.109 -8332727.587 5222498.824 10 0 60982 78300.00000 0 -22760761.258 -8051349.478 8276860.302 10 0 60982 79200.00000 0 -21590005.274 -7777134.964 11170695.921 10 0 60982 80100.00000 0 -20060792.255 -7562813.180 13847897.375 10 0 60982 81000.00000 0 -18207292.028 -7456502.912 16256558.942 10 0 60982 81900.00000 0 -16074438.321 -7499486.998 18349978.378 10 0 60982 82800.00000 0 -13716226.064 -7724285.243 20087557.060 10 0 60982 83700.00000 0 -11193645.119 -8153107.038 21435582.605 10 0 60982 84600.00000 0 -8572335.517 -8796749.080 22367879.448 10 0 60982 85500.00000 0 -5920060.760 -9653984.976 22866315.310 10 0 60983 0.00000 0 -3304103.245 -10711473.051 22921154.164 10 0 60983 900.00000 0 -788687.426 -11944187.852 22531248.919 10 0 60983 1800.00000 0 1567459.891 -13316357.084 21704069.960 10 0 60983 2700.00000 0 3713316.502 -14782867.993 20455568.611 10 0 60983 3600.00000 0 5607444.642 -16291084.360 18809877.235 10 0 60983 4500.00000 0 7219467.596 -17782999.786 16798850.951 10 0 60983 5400.00000 0 8531081.883 -19197638.018 14461458.790 10 0 60983 6300.00000 0 9536563.192 -20473600.337 11843035.063 10 0 60983 7200.00000 0 10242745.263 -21551653.385 8994404.619 10 0 60983 8100.00000 0 10668472.987 -22377248.548 5970898.373 10 0 60983 9000.00000 0 10843553.154 -22902866.431 2831277.915 10 0 60983 9900.00000 0 10807247.589 -23090086.831 -363409.756 10 0 60983 10800.00000 0 10606372.991 -22911295.981 -3551024.707 10 0 60983 11700.00000 0 10293088.626 -22350957.908 -6669549.818 10 0 60983 12600.00000 0 9922466.481 -21406395.187 -9658305.227 10 0 60983 13500.00000 0 9549947.831 -20088045.164 -12459136.838 10 0 60983 14400.00000 0 9228795.042 -18419180.029 -15017554.837 10 0 60983 15300.00000 0 9007647.552 -16435101.893 -17283799.267 10 0 60983 16200.00000 0 8928286.413 -14181846.319 -19213811.385 10 0 60983 17100.00000 0 9023702.682 -11714448.435 -20770091.700 10 0 60983 18000.00000 0 9316551.858 -9094844.163 -21922427.991 10 0 60983 18900.00000 0 9818059.992 -6389494.202 -22648479.491 10 0 60983 19800.00000 0 10527427.766 -3666829.798 -22934206.353 10 0 60983 20700.00000 0 11431757.795 -994626.525 -22774136.642 10 0 60983 21600.00000 0 12506508.165 1562585.053 -22171466.262 10 0 60983 22500.00000 0 13716453.190 3945964.773 -21137990.446 10 0 60983 23400.00000 0 15017110.970 6104563.497 -19693868.573 10 0 60983 24300.00000 0 16356577.819 7997188.589 -17867227.200 10 0 60983 25200.00000 0 17677692.581 9593857.951 -15693609.200 10 0 60983 26100.00000 0 18920439.986 10876783.561 -13215279.798 10 0 60983 27000.00000 0 20024492.203 11840845.157 -10480403.026 10 0 60983 27900.00000 0 20931781.879 12493535.987 -7542104.550 10 0 60983 28800.00000 0 21588998.609 12854384.627 -4457439.156 10 0 60983 29700.00000 0 21949903.961 12953878.743 -1286282.964 10 0 60983 30600.00000 0 21977367.755 12831937.480 1909828.060 10 0 60983 31500.00000 0 21645039.994 12535998.006 5068890.597 10 0 60983 32400.00000 0 20938588.112 12118797.769 8129634.304 10 0 60983 33300.00000 0 19856447.440 11635946.662 11032706.726 10 0 60983 34200.00000 0 18410053.127 11143391.874 13721819.872 10 0 60983 35100.00000 0 16623543.421 10694882.506 16144836.547 10 0 60983 36000.00000 0 14532946.166 10339540.821 18254775.798 10 0 60983 36900.00000 0 12184881.790 10119642.329 20010718.503 10 0 60983 37800.00000 0 9634836.005 10068698.020 21378596.226 10 0 60983 38700.00000 0 6945073.064 10209919.368 22331848.676 10 0 60983 39600.00000 0 4182275.253 10555130.708 22851937.578 10 0 60983 40500.00000 0 1415005.364 11104174.994 22928707.407 10 0 60983 41400.00000 0 -1288903.782 11844838.478 22560586.128 10 0 60983 42300.00000 0 -3864925.636 12753298.300 21754621.893 10 0 60983 43200.00000 0 -6254276.278 13795075.258 20526354.545 10 0 60983 44100.00000 0 -8406110.621 14926452.959 18899523.672 10 0 60983 45000.00000 0 -10279387.902 16096304.934 16905617.926 10 0 60983 45900.00000 0 -11844329.423 17248254.026 14583273.324 10 0 60983 46800.00000 0 -13083408.147 18323074.112 11977531.153 10 0 60983 47700.00000 0 -13991829.131 19261233.524 9138969.022 10 0 60983 48600.00000 0 -14577480.921 20005473.165 6122721.313 10 0 60983 49500.00000 0 -14860360.335 20503310.287 2987407.723 10 0 60983 50400.00000 0 -14871495.192 20709361.595 -206009.152 10 0 60983 51300.00000 0 -14651411.012 20587386.608 -3395414.563 10 0 60983 52200.00000 0 -14248207.127 20111963.840 -6518756.846 10 0 60983 53100.00000 0 -13715324.417 19269727.746 -9515262.510 10 0 60983 54000.00000 0 -13109100.090 18060113.040 -12326626.587 10 0 60983 54900.00000 0 -12486213.982 16495573.882 -14898154.132 10 0 60983 55800.00000 0 -11901135.468 14601267.827 -17179829.839 10 0 60983 56700.00000 0 -11403679.793 12414217.067 -19127294.453 10 0 60983 57600.00000 0 -11036777.847 9981981.681 -20702708.718 10 0 60983 58500.00000 0 -10834554.023 7360900.092 -21875488.081 10 0 60983 59400.00000 0 -10820793.520 4613970.033 -22622894.163 10 0 60983 60300.00000 0 -11007863.702 1808458.203 -22930471.995 10 0 60983 61200.00000 0 -11396134.800 -986662.040 -22792325.062 10 0 60983 62100.00000 0 -11973924.065 -3703338.722 -22211223.473 10 0 60983 63000.00000 0 -12717965.364 -6277026.314 -21198543.684 10 0 60983 63900.00000 0 -13594384.128 -8649121.068 -19774041.406 10 0 60983 64800.00000 0 -14560136.344 -10769146.358 -17965462.448 10 0 60983 65700.00000 0 -15564850.832 -12596598.304 -15807999.228 10 0 60983 66600.00000 0 -16552997.126 -14102376.125 -13343603.613 10 0 60983 67500.00000 0 -17466287.645 -15269739.128 -10620169.458 10 0 60983 68400.00000 0 -18246212.967 -16094751.915 -7690600.701 10 0 60983 69300.00000 0 -18836603.452 -16586200.815 -4611783.154 10 0 60983 70200.00000 0 -19186109.266 -16764986.609 -1443479.990 10 0 60983 71100.00000 0 -19250494.348 -16663020.511 1752827.567 10 0 60983 72000.00000 0 -18994647.617 -16321671.071 4915131.720 10 0 60983 72900.00000 0 -18394226.632 -15789828.431 7982098.567 10 0 60983 73800.00000 0 -17436864.323 -15121668.205 10894254.295 10 0 60983 74700.00000 0 -16122887.752 -14374209.700 13595134.184 10 0 60983 75600.00000 0 -14465518.249 -13604771.543 16032372.405 10 0 60983 76500.00000 0 -12490543.850 -12868431.874 18158711.930 10 0 60983 77400.00000 0 -10235476.916 -12215599.801 19932915.498 10 0 60983 78300.00000 0 -7748231.062 -11689799.984 21320560.623 10 0 60983 79200.00000 0 -5085371.305 -11325763.148 22294703.886 10 0 60983 80100.00000 0 -2310008.966 -11147902.494 22836402.189 10 0 60983 81000.00000 0 510572.642 -11169239.896 22935081.268 10 0 60983 81900.00000 0 3307464.600 -11390827.059 22588744.470 10 0 60983 82800.00000 0 6012746.506 -11801686.318 21804017.616 10 0 60983 83700.00000 0 8562061.143 -12379274.148 20596028.626 10 0 60983 84600.00000 0 10897043.856 -13090448.706 18988123.506 10 0 60983 85500.00000 0 12967506.508 -13892901.656 17011423.282 99